TimeCDT,TemperatureF,Dew PointF,Humidity,Sea Level PressureIn,VisibilityMPH,Wind Direction,Wind SpeedMPH,Gust SpeedMPH,PrecipitationIn,Events,Conditions,WindDirDegrees,DateUTC
12:56 AM,48.0,46.0,93,29.91,10.0,Calm,Calm,-,N/A,,Clear,0,2012-10-02 05:56:00
1:38 AM,46.4,44.6,93,29.92,1.8,Calm,Calm,-,N/A,,Clear,0,2012-10-02 06:38:00
1:53 AM,46.4,44.6,93,29.93,3.0,Calm,Calm,-,N/A,,Clear,0,2012-10-02 06:53:00
1:56 AM,46.0,44.1,93,29.93,4.0,Calm,Calm,-,N/A,,Clear,0,2012-10-02 06:56:00
2:45 AM,44.6,44.6,100,29.93,1.8,Calm,Calm,-,N/A,,Clear,0,2012-10-02 07:45:00
2:56 AM,45.0,44.1,97,29.93,1.8,North,3.5,-,N/A,,Clear,360,2012-10-02 07:56:00
2:58 AM,44.6,44.6,100,29.93,3.0,Calm,Calm,-,N/A,,Clear,0,2012-10-02 07:58:00
3:56 AM,46.0,44.1,93,29.93,8.0,Calm,Calm,-,N/A,,Clear,0,2012-10-02 08:56:00
4:36 AM,44.6,42.8,93,29.94,1.8,Calm,Calm,-,N/A,,Clear,0,2012-10-02 09:36:00
4:45 AM,44.6,44.6,100,29.94,3.0,NNE,3.5,-,N/A,,Clear,20,2012-10-02 09:45:00
4:56 AM,43.0,42.1,97,29.94,3.0,Calm,Calm,-,N/A,,Clear,0,2012-10-02 09:56:00
5:09 AM,42.8,42.8,100,29.93,1.5,Calm,Calm,-,N/A,,Clear,0,2012-10-02 10:09:00
5:19 AM,42.8,42.8,100,29.93,0.8,Calm,Calm,-,N/A,,Mist,0,2012-10-02 10:19:00
5:43 AM,41.0,41.0,100,29.94,0.2,Calm,Calm,-,N/A,Fog,Fog,0,2012-10-02 10:43:00
5:56 AM,42.1,41.0,96,29.95,0.2,Calm,Calm,-,N/A,Fog,Fog,0,2012-10-02 10:56:00
6:45 AM,39.2,39.2,100,29.96,0.5,Calm,Calm,-,N/A,Fog,Fog,0,2012-10-02 11:45:00
6:54 AM,39.2,37.4,93,29.96,2.0,NNE,3.5,-,N/A,,Clear,20,2012-10-02 11:54:00
6:55 AM,39.0,37.9,96,29.97,1.8,NNE,3.5,-,N/A,,Clear,20,2012-10-02 11:55:00
7:06 AM,39.2,39.2,100,29.96,0.5,NNE,3.5,-,N/A,Fog,Fog,30,2012-10-02 12:06:00
7:13 AM,39.2,37.4,93,29.96,0.2,Calm,Calm,-,N/A,Fog,Fog,0,2012-10-02 12:13:00
7:56 AM,41.0,39.9,96,29.98,0.2,Calm,Calm,-,N/A,Fog,Fog,0,2012-10-02 12:56:00
8:17 AM,44.6,44.6,100,29.97,1.2,NNE,3.5,-,N/A,,Scattered Clouds,30,2012-10-02 13:17:00
8:25 AM,46.4,44.6,93,29.97,7.0,Calm,Calm,-,N/A,,Partly Cloudy,0,2012-10-02 13:25:00
8:56 AM,48.0,46.0,93,29.99,10.0,ENE,3.5,-,N/A,,Clear,60,2012-10-02 13:56:00
9:56 AM,55.9,45.0,67,29.98,10.0,Calm,Calm,-,N/A,,Clear,0,2012-10-02 14:56:00
10:56 AM,62.1,42.1,48,29.96,10.0,East,5.8,-,N/A,,Clear,90,2012-10-02 15:56:00
11:56 AM,64.0,41.0,43,29.95,10.0,SSW,4.6,-,N/A,,Clear,200,2012-10-02 16:56:00
12:56 PM,66.9,39.0,36,29.93,10.0,Variable,4.6,-,N/A,,Clear,0,2012-10-02 17:56:00
1:56 PM,66.9,37.9,34,29.91,10.0,Variable,3.5,-,N/A,,Clear,0,2012-10-02 18:56:00
3:56 PM,70.0,36.0,29,29.88,10.0,Calm,Calm,-,N/A,,Clear,0,2012-10-02 20:56:00
4:56 PM,70.0,36.0,29,29.87,10.0,Variable,3.5,-,N/A,,Clear,0,2012-10-02 21:56:00
6:56 PM,63.0,37.0,38,29.88,10.0,Calm,Calm,-,N/A,,Clear,0,2012-10-02 23:56:00
9:56 PM,48.0,37.9,68,29.91,10.0,Calm,Calm,-,N/A,,Clear,0,2012-10-03 02:56:00
10:56 PM,44.1,37.9,79,29.91,10.0,Calm,Calm,-,N/A,,Clear,0,2012-10-03 03:56:00
11:56 PM,45.0,37.9,76,29.90,10.0,Calm,Calm,-,N/A,,Clear,0,2012-10-03 04:56:00